Time,TemperatureF,DewpointF,PressureIn,WindDirection,WindDirectionDegrees,WindSpeedMPH,WindSpeedGustMPH,Humidity,HourlyPrecipIn,Conditions,Clouds,dailyrainin,SoftwareType,DateUTC
2013-09-02 00:05:00,70.4,67.3,29.84,WSW,238,4.0,5.0,90,0.00,,,0.00,Wunderground v.1.15,2013-09-02 05:05:00,
2013-09-02 00:10:00,70.4,67.3,29.83,WSW,242,4.0,4.0,90,0.00,,,0.00,Wunderground v.1.15,2013-09-02 05:10:00,
2013-09-02 00:20:00,70.4,67.3,29.83,WSW,242,3.0,4.0,90,0.00,,,0.00,Wunderground v.1.15,2013-09-02 05:20:00,
2013-09-02 00:25:00,70.5,67.4,29.83,WSW,242,3.0,4.0,90,0.00,,,0.00,Wunderground v.1.15,2013-09-02 05:25:00,
2013-09-02 00:35:00,70.5,67.4,29.83,WSW,242,3.0,3.0,90,0.00,,,0.00,Wunderground v.1.15,2013-09-02 05:35:00,
2013-09-02 00:40:00,70.4,67.3,29.83,WSW,242,3.0,3.0,90,0.00,,,0.00,Wunderground v.1.15,2013-09-02 05:40:00,
2013-09-02 00:45:00,70.5,67.4,29.83,WSW,242,3.0,3.0,90,0.00,,,0.00,Wunderground v.1.15,2013-09-02 05:45:00,
2013-09-02 00:55:00,70.5,67.4,29.83,WSW,242,3.0,3.0,90,0.00,,,0.00,Wunderground v.1.15,2013-09-02 05:55:00,
2013-09-02 01:00:00,70.4,67.3,29.82,WSW,242,3.0,5.0,90,0.00,,,0.00,Wunderground v.1.15,2013-09-02 06:00:00,
2013-09-02 01:10:00,70.5,67.4,29.82,West,265,4.0,7.0,90,0.00,,,0.00,Wunderground v.1.15,2013-09-02 06:10:00,
2013-09-02 01:15:00,70.6,67.2,29.82,West,273,5.0,7.0,89,0.00,,,0.00,Wunderground v.1.15,2013-09-02 06:15:00,
2013-09-02 01:25:00,70.7,66.6,29.81,West,267,5.0,5.0,87,0.00,,,0.00,Wunderground v.1.15,2013-09-02 06:25:00,
2013-09-02 01:30:00,70.8,66.7,29.81,WNW,284,5.0,5.0,87,0.00,,,0.00,Wunderground v.1.15,2013-09-02 06:30:00,
2013-09-02 01:35:00,71.0,66.6,29.81,West,275,5.0,9.0,86,0.00,,,0.00,Wunderground v.1.15,2013-09-02 06:35:00,
2013-09-02 01:40:00,71.0,66.3,29.82,West,269,5.0,6.0,85,0.00,,,0.00,Wunderground v.1.15,2013-09-02 06:40:00,
2013-09-02 01:50:00,71.2,65.8,29.82,West,273,5.0,5.0,83,0.00,,,0.00,Wunderground v.1.15,2013-09-02 06:50:00,
2013-09-02 01:55:00,71.2,65.8,29.82,WNW,289,6.0,6.0,83,0.00,,,0.00,Wunderground v.1.15,2013-09-02 06:55:00,
2013-09-02 02:05:00,71.2,65.4,29.82,WNW,282,5.0,7.0,82,0.00,,,0.00,Wunderground v.1.15,2013-09-02 07:05:00,
2013-09-02 02:10:00,71.2,65.4,29.82,WNW,287,5.0,5.0,82,0.00,,,0.00,Wunderground v.1.15,2013-09-02 07:10:00,
2013-09-02 02:15:00,71.2,65.1,29.82,West,275,5.0,8.0,81,0.00,,,0.00,Wunderground v.1.15,2013-09-02 07:15:00,
2013-09-02 02:25:00,71.0,64.9,29.82,WNW,294,5.0,6.0,81,0.00,,,0.00,Wunderground v.1.15,2013-09-02 07:25:00,
2013-09-02 02:30:00,70.9,64.8,29.83,WNW,302,5.0,5.0,81,0.00,,,0.00,Wunderground v.1.15,2013-09-02 07:30:00,
2013-09-02 02:40:00,70.7,64.6,29.83,WNW,289,6.0,7.0,81,0.00,,,0.00,Wunderground v.1.15,2013-09-02 07:40:00,
2013-09-02 02:50:00,70.4,64.3,29.83,NW,306,5.0,6.0,81,0.00,,,0.00,Wunderground v.1.15,2013-09-02 07:50:00,
2013-09-02 02:55:00,70.3,64.2,29.83,NW,306,5.0,6.0,81,0.00,,,0.00,Wunderground v.1.15,2013-09-02 07:55:00,
2013-09-02 03:00:00,70.2,64.1,29.83,WNW,302,5.0,5.0,81,0.00,,,0.00,Wunderground v.1.15,2013-09-02 08:00:00,
2013-09-02 03:10:00,69.8,63.7,29.83,WNW,294,5.0,5.0,81,0.00,,,0.00,Wunderground v.1.15,2013-09-02 08:10:00,
2013-09-02 03:15:00,69.6,63.9,29.83,WNW,293,4.0,5.0,82,0.00,,,0.00,Wunderground v.1.15,2013-09-02 08:15:00,
2013-09-02 03:25:00,69.3,63.6,29.83,WNW,294,4.0,4.0,82,0.00,,,0.00,Wunderground v.1.15,2013-09-02 08:25:00,
2013-09-02 03:35:00,69.0,63.3,29.83,WNW,302,5.0,6.0,82,0.00,,,0.00,Wunderground v.1.15,2013-09-02 08:35:00,
2013-09-02 03:40:00,68.9,63.5,29.83,WNW,294,5.0,5.0,83,0.00,,,0.00,Wunderground v.1.15,2013-09-02 08:40:00,
2013-09-02 03:45:00,68.9,63.5,29.84,West,273,5.0,5.0,83,0.00,,,0.00,Wunderground v.1.15,2013-09-02 08:45:00,
2013-09-02 03:50:00,68.8,63.1,29.84,WNW,286,5.0,6.0,82,0.00,,,0.00,Wunderground v.1.15,2013-09-02 08:50:00,
2013-09-02 04:00:00,68.4,62.7,29.84,NW,306,4.0,4.0,82,0.00,,,0.00,Wunderground v.1.15,2013-09-02 09:00:00,
2013-09-02 04:05:00,68.3,62.9,29.84,NW,306,4.0,4.0,83,0.00,,,0.00,Wunderground v.1.15,2013-09-02 09:05:00,
2013-09-02 04:15:00,67.9,62.5,29.84,NW,308,3.0,6.0,83,0.00,,,0.00,Wunderground v.1.15,2013-09-02 09:15:00,
2013-09-02 04:20:00,67.7,62.3,29.84,NW,309,4.0,4.0,83,0.00,,,0.00,Wunderground v.1.15,2013-09-02 09:20:00,
2013-09-02 04:25:00,67.5,62.5,29.84,NW,307,4.0,8.0,84,0.00,,,0.00,Wunderground v.1.15,2013-09-02 09:25:00,
2013-09-02 04:35:00,67.2,62.2,29.84,NW,304,4.0,4.0,84,0.00,,,0.00,Wunderground v.1.15,2013-09-02 09:35:00,
2013-09-02 04:40:00,67.1,62.1,29.84,WNW,286,4.0,4.0,84,0.00,,,0.00,Wunderground v.1.15,2013-09-02 09:40:00,
2013-09-02 04:50:00,66.9,61.9,29.85,WNW,294,3.0,4.0,84,0.00,,,0.00,Wunderground v.1.15,2013-09-02 09:50:00,
2013-09-02 04:55:00,66.8,61.8,29.85,WNW,298,4.0,4.0,84,0.00,,,0.00,Wunderground v.1.15,2013-09-02 09:55:00,
2013-09-02 05:00:00,66.7,62.0,29.85,WNW,298,4.0,4.0,85,0.00,,,0.00,Wunderground v.1.15,2013-09-02 10:00:00,
2013-09-02 05:10:00,66.3,61.7,29.85,WNW,301,3.0,4.0,85,0.00,,,0.00,Wunderground v.1.15,2013-09-02 10:10:00,
2013-09-02 05:15:00,66.2,61.6,29.86,NW,304,3.0,4.0,85,0.00,,,0.00,Wunderground v.1.15,2013-09-02 10:15:00,
2013-09-02 05:25:00,65.9,61.6,29.86,NW,304,5.0,5.0,86,0.00,,,0.00,Wunderground v.1.15,2013-09-02 10:25:00,
2013-09-02 05:30:00,65.7,61.4,29.86,NW,304,4.0,4.0,86,0.00,,,0.00,Wunderground v.1.15,2013-09-02 10:30:00,
2013-09-02 05:35:00,65.6,61.3,29.86,NW,304,3.0,4.0,86,0.00,,,0.00,Wunderground v.1.15,2013-09-02 10:35:00,
2013-09-02 05:45:00,65.4,61.4,29.86,WNW,301,3.0,3.0,87,0.00,,,0.00,Wunderground v.1.15,2013-09-02 10:45:00,
2013-09-02 05:55:00,65.2,61.2,29.86,WNW,301,2.0,4.0,87,0.00,,,0.00,Wunderground v.1.15,2013-09-02 10:55:00,
2013-09-02 06:05:00,65.0,61.0,29.87,WNW,301,3.0,4.0,87,0.00,,,0.00,Wunderground v.1.15,2013-09-02 11:05:00,
2013-09-02 06:10:00,64.9,60.9,29.87,WNW,301,4.0,5.0,87,0.00,,,0.00,Wunderground v.1.15,2013-09-02 11:10:00,
2013-09-02 06:20:00,64.7,61.1,29.88,WNW,302,4.0,4.0,88,0.00,,,0.00,Wunderground v.1.15,2013-09-02 11:20:00,
2013-09-02 06:25:00,64.7,61.1,29.88,WNW,302,4.0,4.0,88,0.00,,,0.00,Wunderground v.1.15,2013-09-02 11:25:00,
2013-09-02 06:35:00,64.5,60.9,29.88,NW,309,5.0,5.0,88,0.00,,,0.00,Wunderground v.1.15,2013-09-02 11:35:00,
2013-09-02 06:40:00,64.3,60.7,29.89,NW,304,5.0,5.0,88,0.00,,,0.00,Wunderground v.1.15,2013-09-02 11:40:00,
2013-09-02 06:50:00,64.1,60.5,29.89,NW,304,5.0,5.0,88,0.00,,,0.00,Wunderground v.1.15,2013-09-02 11:50:00,
2013-09-02 06:55:00,64.1,60.5,29.89,NW,306,4.0,5.0,88,0.00,,,0.00,Wunderground v.1.15,2013-09-02 11:55:00,
2013-09-02 07:05:00,64.0,60.7,29.89,NW,307,3.0,3.0,89,0.00,,,0.00,Wunderground v.1.15,2013-09-02 12:05:00,
2013-09-02 07:10:00,64.0,60.7,29.89,NW,309,3.0,3.0,89,0.00,,,0.00,Wunderground v.1.15,2013-09-02 12:10:00,
2013-09-02 07:20:00,64.0,60.7,29.89,NW,311,3.0,3.0,89,0.00,,,0.00,Wunderground v.1.15,2013-09-02 12:20:00,
2013-09-02 07:25:00,64.1,60.8,29.89,NW,311,2.0,3.0,89,0.00,,,0.00,Wunderground v.1.15,2013-09-02 12:25:00,
2013-09-02 07:30:00,64.2,61.2,29.90,NW,311,2.0,7.0,90,0.00,,,0.00,Wunderground v.1.15,2013-09-02 12:30:00,
2013-09-02 07:40:00,64.6,61.6,29.90,NW,313,3.0,4.0,90,0.00,,,0.00,Wunderground v.1.15,2013-09-02 12:40:00,
2013-09-02 07:50:00,65.1,62.1,29.90,NW,312,4.0,4.0,90,0.00,,,0.00,Wunderground v.1.15,2013-09-02 12:50:00,
2013-09-02 07:55:00,65.4,62.1,29.90,NW,317,4.0,4.0,89,0.00,,,0.00,Wunderground v.1.15,2013-09-02 12:55:00,
2013-09-02 08:05:00,65.9,62.6,29.91,NW,314,3.0,3.0,89,0.00,,,0.00,Wunderground v.1.15,2013-09-02 13:05:00,
2013-09-02 08:10:00,66.2,62.9,29.91,NW,315,3.0,4.0,89,0.00,,,0.00,Wunderground v.1.15,2013-09-02 13:10:00,
2013-09-02 08:20:00,67.0,63.3,29.91,NW,315,4.0,4.0,88,0.00,,,0.00,Wunderground v.1.15,2013-09-02 13:20:00,
2013-09-02 08:25:00,67.7,64.0,29.91,NW,310,3.0,4.0,88,0.00,,,0.00,Wunderground v.1.15,2013-09-02 13:25:00,
2013-09-02 08:35:00,69.3,64.6,29.91,NW,321,4.0,7.0,85,0.00,,,0.00,Wunderground v.1.15,2013-09-02 13:35:00,
2013-09-02 08:40:00,70.0,64.6,29.91,NNW,329,4.0,4.0,83,0.00,,,0.00,Wunderground v.1.15,2013-09-02 13:40:00,
2013-09-02 08:45:00,70.6,64.8,29.91,NW,316,4.0,6.0,82,0.00,,,0.00,Wunderground v.1.15,2013-09-02 13:45:00,
2013-09-02 08:55:00,72.0,65.8,29.92,NNW,329,4.0,5.0,81,0.00,,,0.00,Wunderground v.1.15,2013-09-02 13:55:00,
2013-09-02 09:00:00,72.7,66.2,29.92,NNW,332,3.0,3.0,80,0.00,,,0.00,Wunderground v.1.15,2013-09-02 14:00:00,
2013-09-02 09:10:00,73.6,65.9,29.92,NW,306,4.0,8.0,77,0.00,,,0.00,Wunderground v.1.15,2013-09-02 14:10:00,
2013-09-02 09:20:00,74.7,66.2,29.93,NNW,340,3.0,4.0,75,0.00,,,0.00,Wunderground v.1.15,2013-09-02 14:20:00,
2013-09-02 09:25:00,74.8,66.3,29.93,NW,314,3.0,4.0,75,0.00,,,0.00,Wunderground v.1.15,2013-09-02 14:25:00,
2013-09-02 09:30:00,75.0,66.9,29.93,NNW,341,3.0,6.0,76,0.00,,,0.00,Wunderground v.1.15,2013-09-02 14:30:00,
2013-09-02 09:40:00,75.5,67.0,29.93,NNW,341,3.0,3.0,75,0.00,,,0.00,Wunderground v.1.15,2013-09-02 14:40:00,
2013-09-02 09:50:00,75.7,67.2,29.93,NNW,329,3.0,3.0,75,0.00,,,0.00,Wunderground v.1.15,2013-09-02 14:50:00,
2013-09-02 09:55:00,76.0,67.1,29.93,North,360,3.0,4.0,74,0.00,,,0.00,Wunderground v.1.15,2013-09-02 14:55:00,
2013-09-02 10:05:00,76.5,68.0,29.93,NNW,333,2.0,2.0,75,0.00,,,0.00,Wunderground v.1.15,2013-09-02 15:05:00,
2013-09-02 10:10:00,77.2,67.9,29.93,North,5,3.0,3.0,73,0.00,,,0.00,Wunderground v.1.15,2013-09-02 15:10:00,
2013-09-02 10:15:00,78.1,67.9,29.93,NNW,338,3.0,4.0,71,0.00,,,0.00,Wunderground v.1.15,2013-09-02 15:15:00,
2013-09-02 10:25:00,80.0,68.9,29.93,NNW,340,3.0,3.0,69,0.00,,,0.00,Wunderground v.1.15,2013-09-02 15:25:00,
2013-09-02 10:30:00,81.0,69.0,29.93,NNW,327,2.0,4.0,67,0.00,,,0.00,Wunderground v.1.15,2013-09-02 15:30:00,
2013-09-02 10:35:00,82.0,68.6,29.94,NNW,327,2.0,4.0,64,0.00,,,0.00,Wunderground v.1.15,2013-09-02 15:35:00,
2013-09-02 10:45:00,83.4,69.5,29.93,NNW,340,1.0,1.0,63,0.00,,,0.00,Wunderground v.1.15,2013-09-02 15:45:00,
2013-09-02 10:50:00,84.0,69.6,29.93,NW,315,3.0,3.0,62,0.00,,,0.00,Wunderground v.1.15,2013-09-02 15:50:00,
2013-09-02 10:55:00,84.6,69.7,29.94,NNW,340,3.0,3.0,61,0.00,,,0.00,Wunderground v.1.15,2013-09-02 15:55:00,
2013-09-02 11:05:00,85.8,69.3,29.93,NNW,327,2.0,4.0,58,0.00,,,0.00,Wunderground v.1.15,2013-09-02 16:05:00,
2013-09-02 11:10:00,86.2,69.2,29.94,NNW,339,2.0,4.0,57,0.00,,,0.00,Wunderground v.1.15,2013-09-02 16:10:00,
2013-09-02 11:20:00,87.0,67.8,29.94,NNW,339,2.0,2.0,53,0.00,,,0.00,Wunderground v.1.15,2013-09-02 16:20:00,
2013-09-02 11:25:00,87.2,67.4,29.93,NW,313,3.0,5.0,52,0.00,,,0.00,Wunderground v.1.15,2013-09-02 16:25:00,
2013-09-02 11:30:00,87.6,68.4,29.93,NW,314,3.0,3.0,53,0.00,,,0.00,Wunderground v.1.15,2013-09-02 16:30:00,
2013-09-02 11:40:00,88.3,67.3,29.93,North,11,2.0,2.0,50,0.00,,,0.00,Wunderground v.1.15,2013-09-02 16:40:00,
2013-09-02 11:45:00,88.3,67.9,29.93,North,5,2.0,2.0,51,0.00,,,0.00,Wunderground v.1.15,2013-09-02 16:45:00,
2013-09-02 11:55:00,87.9,67.5,29.93,NNW,328,2.0,4.0,51,0.00,,,0.00,Wunderground v.1.15,2013-09-02 16:55:00,
2013-09-02 12:00:00,88.2,67.8,29.93,NNW,327,2.0,2.0,51,0.00,,,0.00,Wunderground v.1.15,2013-09-02 17:00:00,
2013-09-02 12:05:00,88.3,65.5,29.94,NW,311,2.0,4.0,47,0.00,,,0.00,Wunderground v.1.15,2013-09-02 17:05:00,
2013-09-02 12:15:00,87.0,64.9,29.93,North,5,3.0,5.0,48,0.00,,,0.00,Wunderground v.1.15,2013-09-02 17:15:00,
2013-09-02 12:20:00,87.0,66.7,29.93,NW,309,3.0,9.0,51,0.00,,,0.00,Wunderground v.1.15,2013-09-02 17:20:00,
2013-09-02 12:30:00,88.2,65.4,29.93,NW,321,3.0,3.0,47,0.00,,,0.00,Wunderground v.1.15,2013-09-02 17:30:00,
2013-09-02 12:35:00,88.0,65.2,29.93,NNW,332,3.0,3.0,47,0.00,,,0.00,Wunderground v.1.15,2013-09-02 17:35:00,
2013-09-02 12:45:00,87.4,65.9,29.93,North,360,2.0,2.0,49,0.00,,,0.00,Wunderground v.1.15,2013-09-02 17:45:00,
2013-09-02 12:50:00,87.4,65.3,29.93,NNW,336,2.0,3.0,48,0.00,,,0.00,Wunderground v.1.15,2013-09-02 17:50:00,
2013-09-02 12:55:00,87.7,65.6,29.93,NW,314,2.0,3.0,48,0.00,,,0.00,Wunderground v.1.15,2013-09-02 17:55:00,
2013-09-02 13:05:00,88.5,63.8,29.93,NW,311,1.0,3.0,44,0.00,,,0.00,Wunderground v.1.15,2013-09-02 18:05:00,
2013-09-02 13:15:00,88.5,63.8,29.93,NW,308,3.0,9.0,44,0.00,,,0.00,Wunderground v.1.15,2013-09-02 18:15:00,
2013-09-02 13:20:00,88.0,64.0,29.93,WNW,300,6.0,6.0,45,0.00,,,0.00,Wunderground v.1.15,2013-09-02 18:20:00,
2013-09-02 13:25:00,87.3,62.7,29.93,NW,309,6.0,6.0,44,0.00,,,0.00,Wunderground v.1.15,2013-09-02 18:25:00,
2013-09-02 13:35:00,86.1,64.1,29.93,NW,315,3.0,4.0,48,0.00,,,0.00,Wunderground v.1.15,2013-09-02 18:35:00,
2013-09-02 13:40:00,86.3,63.1,29.92,WNW,296,4.0,5.0,46,0.00,,,0.00,Wunderground v.1.15,2013-09-02 18:40:00,
2013-09-02 13:50:00,87.1,63.2,29.92,NNW,340,4.0,4.0,45,0.00,,,0.00,Wunderground v.1.15,2013-09-02 18:50:00,
2013-09-02 13:55:00,87.6,64.3,29.92,NW,324,3.0,5.0,46,0.00,,,0.00,Wunderground v.1.15,2013-09-02 18:55:00,
2013-09-02 14:00:00,87.5,63.5,29.92,NW,324,3.0,3.0,45,0.00,,,0.00,Wunderground v.1.15,2013-09-02 19:00:00,
2013-09-02 14:10:00,87.4,64.7,29.92,North,360,2.0,2.0,47,0.00,,,0.00,Wunderground v.1.15,2013-09-02 19:10:00,
2013-09-02 14:15:00,87.4,62.2,29.92,NW,309,2.0,4.0,43,0.00,,,0.00,Wunderground v.1.15,2013-09-02 19:15:00,
2013-09-02 14:25:00,87.4,62.8,29.91,NW,311,3.0,5.0,44,0.00,,,0.00,Wunderground v.1.15,2013-09-02 19:25:00,
2013-09-02 14:30:00,87.2,62.6,29.91,North,5,3.0,5.0,44,0.00,,,0.00,Wunderground v.1.15,2013-09-02 19:30:00,
2013-09-02 14:35:00,87.1,63.8,29.91,North,5,3.0,5.0,46,0.00,,,0.00,Wunderground v.1.15,2013-09-02 19:35:00,
2013-09-02 14:45:00,86.1,62.3,29.91,NNW,333,4.0,5.0,45,0.00,,,0.00,Wunderground v.1.15,2013-09-02 19:45:00,
2013-09-02 14:50:00,85.6,62.4,29.91,NW,321,4.0,6.0,46,0.00,,,0.00,Wunderground v.1.15,2013-09-02 19:50:00,
2013-09-02 14:55:00,85.0,61.9,29.92,NW,314,3.0,6.0,46,0.00,,,0.00,Wunderground v.1.15,2013-09-02 19:55:00,
2013-09-02 15:05:00,83.8,62.6,29.91,NW,315,5.0,5.0,49,0.00,,,0.00,Wunderground v.1.15,2013-09-02 20:05:00,
2013-09-02 15:10:00,83.5,62.9,29.91,NNW,333,3.0,3.0,50,0.00,,,0.00,Wunderground v.1.15,2013-09-02 20:10:00,
2013-09-02 15:20:00,83.4,61.7,29.91,North,360,3.0,3.0,48,0.00,,,0.00,Wunderground v.1.15,2013-09-02 20:20:00,
2013-09-02 15:25:00,83.2,62.1,29.91,WNW,291,2.0,13.0,49,0.00,,,0.00,Wunderground v.1.15,2013-09-02 20:25:00,
2013-09-02 15:35:00,83.0,61.9,29.91,WNW,297,4.0,9.0,49,0.00,,,0.00,Wunderground v.1.15,2013-09-02 20:35:00,
2013-09-02 15:40:00,83.1,60.2,29.91,NW,311,6.0,6.0,46,0.00,,,0.00,Wunderground v.1.15,2013-09-02 20:40:00,
2013-09-02 15:50:00,82.8,61.1,29.91,NW,310,4.0,7.0,48,0.00,,,0.00,Wunderground v.1.15,2013-09-02 20:50:00,
2013-09-02 15:55:00,82.4,61.9,29.91,NW,324,3.0,7.0,50,0.00,,,0.00,Wunderground v.1.15,2013-09-02 20:55:00,
2013-09-02 16:05:00,82.3,61.8,29.91,NW,322,3.0,4.0,50,0.00,,,0.00,Wunderground v.1.15,2013-09-02 21:05:00,
2013-09-02 16:10:00,82.3,60.6,29.91,NNE,20,3.0,4.0,48,0.00,,,0.00,Wunderground v.1.15,2013-09-02 21:10:00,
2013-09-02 16:20:00,82.0,59.8,29.90,NNW,338,4.0,5.0,47,0.00,,,0.00,Wunderground v.1.15,2013-09-02 21:20:00,
2013-09-02 16:25:00,81.9,60.3,29.90,NNW,341,3.0,5.0,48,0.00,,,0.00,Wunderground v.1.15,2013-09-02 21:25:00,
2013-09-02 16:30:00,81.9,59.7,29.90,NW,315,3.0,3.0,47,0.00,,,0.00,Wunderground v.1.15,2013-09-02 21:30:00,
2013-09-02 16:40:00,81.8,60.2,29.90,NW,306,3.0,8.0,48,0.00,,,0.00,Wunderground v.1.15,2013-09-02 21:40:00,
2013-09-02 16:45:00,81.8,60.2,29.90,North,360,4.0,8.0,48,0.00,,,0.00,Wunderground v.1.15,2013-09-02 21:45:00,
2013-09-02 16:55:00,81.5,59.3,29.90,NW,313,3.0,6.0,47,0.00,,,0.00,Wunderground v.1.15,2013-09-02 21:55:00,
2013-09-02 17:00:00,81.4,59.8,29.90,NW,313,4.0,6.0,48,0.00,,,0.00,Wunderground v.1.15,2013-09-02 22:00:00,
2013-09-02 17:10:00,81.3,60.3,29.90,NNW,327,3.0,3.0,49,0.00,,,0.00,Wunderground v.1.15,2013-09-02 22:10:00,
2013-09-02 17:15:00,81.2,60.2,29.90,NNW,329,3.0,3.0,49,0.00,,,0.00,Wunderground v.1.15,2013-09-02 22:15:00,
2013-09-02 17:25:00,81.0,60.0,29.90,NNW,329,4.0,4.0,49,0.00,,,0.00,Wunderground v.1.15,2013-09-02 22:25:00,
2013-09-02 17:30:00,80.9,59.9,29.90,NNW,336,3.0,3.0,49,0.00,,,0.00,Wunderground v.1.15,2013-09-02 22:30:00,
2013-09-02 17:35:00,80.8,58.7,29.90,North,360,3.0,3.0,47,0.00,,,0.00,Wunderground v.1.15,2013-09-02 22:35:00,
2013-09-02 17:45:00,80.6,58.5,29.90,NW,322,3.0,3.0,47,0.00,,,0.00,Wunderground v.1.15,2013-09-02 22:45:00,
2013-09-02 17:50:00,80.5,59.0,29.90,NNW,327,3.0,5.0,48,0.00,,,0.00,Wunderground v.1.15,2013-09-02 22:50:00,
2013-09-02 18:00:00,80.3,59.4,29.90,NW,313,2.0,2.0,49,0.00,,,0.00,Wunderground v.1.15,2013-09-02 23:00:00,
2013-09-02 18:05:00,79.9,59.6,29.90,NW,317,2.0,2.0,50,0.00,,,0.00,Wunderground v.1.15,2013-09-02 23:05:00,
2013-09-02 18:10:00,79.6,60.4,29.90,NW,317,2.0,2.0,52,0.00,,,0.00,Wunderground v.1.15,2013-09-02 23:10:00,
2013-09-02 18:20:00,79.2,61.1,29.90,NW,319,2.0,2.0,54,0.00,,,0.00,Wunderground v.1.15,2013-09-02 23:20:00,
2013-09-02 18:25:00,79.0,60.9,29.90,NW,315,1.0,2.0,54,0.00,,,0.00,Wunderground v.1.15,2013-09-02 23:25:00,
2013-09-02 18:35:00,78.5,61.5,29.90,NW,316,1.0,3.0,56,0.00,,,0.00,Wunderground v.1.15,2013-09-02 23:35:00,
2013-09-02 18:40:00,78.2,61.7,29.90,NW,316,2.0,2.0,57,0.00,,,0.00,Wunderground v.1.15,2013-09-02 23:40:00,
2013-09-02 18:45:00,77.8,61.8,29.90,NW,317,1.0,2.0,58,0.00,,,0.00,Wunderground v.1.15,2013-09-02 23:45:00,
2013-09-02 18:55:00,77.2,61.3,29.90,NW,315,2.0,7.0,58,0.00,,,0.00,Wunderground v.1.15,2013-09-02 23:55:00,
2013-09-02 19:00:00,76.9,61.5,29.91,NW,315,1.0,2.0,59,0.00,,,0.00,Wunderground v.1.15,2013-09-03 00:00:00,
2013-09-02 19:10:00,76.2,61.8,29.91,NW,315,1.0,3.0,61,0.00,,,0.00,Wunderground v.1.15,2013-09-03 00:10:00,
2013-09-02 19:15:00,75.8,61.4,29.91,NW,321,2.0,4.0,61,0.00,,,0.00,Wunderground v.1.15,2013-09-03 00:15:00,
2013-09-02 19:25:00,75.1,61.2,29.91,NNW,328,2.0,2.0,62,0.00,,,0.00,Wunderground v.1.15,2013-09-03 00:25:00,
2013-09-02 19:30:00,74.7,61.3,29.91,NNW,329,2.0,4.0,63,0.00,,,0.00,Wunderground v.1.15,2013-09-03 00:30:00,
2013-09-02 19:40:00,74.0,61.5,29.91,NNW,327,2.0,2.0,65,0.00,,,0.00,Wunderground v.1.15,2013-09-03 00:40:00,
2013-09-02 19:45:00,73.6,61.1,29.92,NNW,327,2.0,2.0,65,0.00,,,0.00,Wunderground v.1.15,2013-09-03 00:45:00,
2013-09-02 19:55:00,73.0,61.4,29.92,NNW,328,2.0,2.0,67,0.00,,,0.00,Wunderground v.1.15,2013-09-03 00:55:00,
2013-09-02 20:00:00,72.7,61.5,29.92,NW,324,2.0,2.0,68,0.00,,,0.00,Wunderground v.1.15,2013-09-03 01:00:00,
2013-09-02 20:05:00,72.4,61.7,29.93,NW,324,2.0,2.0,69,0.00,,,0.00,Wunderground v.1.15,2013-09-03 01:05:00,
2013-09-02 20:15:00,71.8,61.5,29.93,NW,324,2.0,2.0,70,0.00,,,0.00,Wunderground v.1.15,2013-09-03 01:15:00,
2013-09-02 20:20:00,71.5,61.6,29.93,NW,324,2.0,2.0,71,0.00,,,0.00,Wunderground v.1.15,2013-09-03 01:20:00,
2013-09-02 20:30:00,70.9,61.4,29.93,NW,324,2.0,2.0,72,0.00,,,0.00,Wunderground v.1.15,2013-09-03 01:30:00,
2013-09-02 20:35:00,70.6,61.5,29.93,NW,324,2.0,2.0,73,0.00,,,0.00,Wunderground v.1.15,2013-09-03 01:35:00,
2013-09-02 20:45:00,70.1,61.4,29.94,NW,324,2.0,4.0,74,0.00,,,0.00,Wunderground v.1.15,2013-09-03 01:45:00,
2013-09-02 20:50:00,69.9,61.6,29.94,NW,324,1.0,1.0,75,0.00,,,0.00,Wunderground v.1.15,2013-09-03 01:50:00,
2013-09-02 21:00:00,69.4,61.5,29.94,NW,324,1.0,1.0,76,0.00,,,0.00,Wunderground v.1.15,2013-09-03 02:00:00,
2013-09-02 21:05:00,69.2,61.3,29.95,NW,325,1.0,3.0,76,0.00,,,0.00,Wunderground v.1.15,2013-09-03 02:05:00,
2013-09-02 21:15:00,68.7,61.2,29.95,NW,324,2.0,2.0,77,0.00,,,0.00,Wunderground v.1.15,2013-09-03 02:15:00,
2013-09-02 21:20:00,68.5,61.4,29.95,NW,324,2.0,2.0,78,0.00,,,0.00,Wunderground v.1.15,2013-09-03 02:20:00,
2013-09-02 21:30:00,68.0,61.2,29.96,NW,325,2.0,3.0,79,0.00,,,0.00,Wunderground v.1.15,2013-09-03 02:30:00,
2013-09-02 21:35:00,67.8,61.0,29.96,NW,325,2.0,3.0,79,0.00,,,0.00,Wunderground v.1.15,2013-09-03 02:35:00,
2013-09-02 21:45:00,67.3,60.9,29.97,NNW,332,3.0,3.0,80,0.00,,,0.00,Wunderground v.1.15,2013-09-03 02:45:00,
2013-09-02 21:50:00,67.1,60.7,29.97,NNW,333,2.0,2.0,80,0.00,,,0.00,Wunderground v.1.15,2013-09-03 02:50:00,
2013-09-02 22:00:00,66.7,60.7,29.97,NNW,334,2.0,4.0,81,0.00,,,0.00,Wunderground v.1.15,2013-09-03 03:00:00,
2013-09-02 22:05:00,66.4,60.7,29.97,NNW,334,2.0,4.0,82,0.00,,,0.00,Wunderground v.1.15,2013-09-03 03:05:00,
2013-09-02 22:10:00,66.3,60.6,29.97,NNW,334,2.0,2.0,82,0.00,,,0.00,Wunderground v.1.15,2013-09-03 03:10:00,
2013-09-02 22:20:00,66.0,60.7,29.97,NNW,334,3.0,3.0,83,0.00,,,0.00,Wunderground v.1.15,2013-09-03 03:20:00,
2013-09-02 22:30:00,65.8,60.8,29.97,NNW,334,2.0,3.0,84,0.00,,,0.00,Wunderground v.1.15,2013-09-03 03:30:00,
2013-09-02 22:35:00,65.6,60.6,29.97,NNW,334,2.0,3.0,84,0.00,,,0.00,Wunderground v.1.15,2013-09-03 03:35:00,
2013-09-02 22:45:00,65.4,60.4,29.97,NNW,334,2.0,2.0,84,0.00,,,0.00,Wunderground v.1.15,2013-09-03 03:45:00,
2013-09-02 22:50:00,65.2,60.6,29.97,NNW,334,2.0,2.0,85,0.00,,,0.00,Wunderground v.1.15,2013-09-03 03:50:00,
2013-09-02 23:00:00,64.9,60.3,29.98,NNW,334,2.0,2.0,85,0.00,,,0.00,Wunderground v.1.15,2013-09-03 04:00:00,
2013-09-02 23:05:00,64.8,60.2,29.97,NNW,334,2.0,2.0,85,0.00,,,0.00,Wunderground v.1.15,2013-09-03 04:05:00,
2013-09-02 23:10:00,64.7,60.1,29.98,NNW,334,2.0,2.0,85,0.00,,,0.00,Wunderground v.1.15,2013-09-03 04:10:00,
2013-09-02 23:15:00,64.5,59.9,29.98,NNW,334,2.0,3.0,85,0.00,,,0.00,Wunderground v.1.15,2013-09-03 04:15:00,
2013-09-02 23:20:00,64.4,60.1,29.98,NNW,334,2.0,2.0,86,0.00,,,0.00,Wunderground v.1.15,2013-09-03 04:20:00,
2013-09-02 23:25:00,64.2,59.9,29.98,NNW,334,2.0,3.0,86,0.00,,,0.00,Wunderground v.1.15,2013-09-03 04:25:00,
2013-09-02 23:30:00,64.1,59.8,29.98,NNW,335,2.0,3.0,86,0.00,,,0.00,Wunderground v.1.15,2013-09-03 04:30:00,
2013-09-02 23:35:00,63.9,59.6,29.98,NNW,335,2.0,3.0,86,0.00,,,0.00,Wunderground v.1.15,2013-09-03 04:35:00,
2013-09-02 23:40:00,63.8,59.5,29.98,NNW,335,2.0,2.0,86,0.00,,,0.00,Wunderground v.1.15,2013-09-03 04:40:00,
2013-09-02 23:45:00,63.6,59.3,29.98,NNW,335,2.0,2.0,86,0.00,,,0.00,Wunderground v.1.15,2013-09-03 04:45:00,
2013-09-02 23:50:00,63.5,59.2,29.98,NNW,335,2.0,2.0,86,0.00,,,0.00,Wunderground v.1.15,2013-09-03 04:50:00,
2013-09-02 23:55:00,63.4,59.5,29.98,NNW,335,2.0,2.0,87,0.00,,,0.00,Wunderground v.1.15,2013-09-03 04:55:00,